Stations météo

réclame
Mon MeteoGroup
Dinard, France (7125): Température de l'air & dewpoint: 28.06.2020 14:00:00 - 04.07.2020 14:00:00 (CEST)Dinard, France (7125): Température de l'air 5cm: 28.06.2020 14:00:00 - 04.07.2020 14:00:00 (CEST)Dinard, France (7125): Température de l'air -20cm: 28.06.2020 14:00:00 - 04.07.2020 14:00:00 (CEST)Dinard, France (7125): Vitesse du vent & gusts: 28.06.2020 14:00:00 - 04.07.2020 14:00:00 (CEST)Dinard, France (7125): Direction du vent: 28.06.2020 14:00:00 - 04.07.2020 14:00:00 (CEST)Dinard, France (7125): reduced air pressure: 28.06.2020 14:00:00 - 04.07.2020 14:00:00 (CEST)Dinard, France (7125): visibility: 28.06.2020 14:00:00 - 04.07.2020 14:00:00 (CEST)Dinard, France (7125): Ensoleillement: 28.06.2020 14:00:00 - 04.07.2020 14:00:00 (CEST)Dinard, France (7125): Quantités de précipitations: 28.06.2020 14:00:00 - 04.07.2020 14:00:00 (CEST)
Date & Time tt [°C] td [°C] tt 5cm [°C] tt -20cm [°C] ff [km/h] ff [knt] fx [km/h] fx [knt] dd ppp [hPa] vv [km] sd [min] rr [mm]
04.07.2020 14:00:00 20,2 17,4 20,4 41,4 26 14 48 26 SW 1017,8 60 0 0,0
04.07.2020 13:00:00 20,4 17,2 20,2 40,2 31 17 51 28 SW 1018,0 55 0 0,0
04.07.2020 12:00:00 19,4 16,8 19,8 41,8 28 15 47 25 SW 1018,0 20 0 0,0
04.07.2020 11:00:00 19,4 16,6 19,8 41,0 30 16 51 28 SW 1017,9 52 0 0,0
04.07.2020 10:00:00 19,0 16,2 18,0 40,9 30 16 52 28 SW 1017,8 60 32 0,0
04.07.2020 09:00:00 17,7 15,7 15,9 37,2 29 16 50 27 SSW 1017,8 55 11 0,0
04.07.2020 08:00:00 16,4 15,3 15,6 39,1 27 14 43 23 SW 1017,9 17 0 0,2
04.07.2020 07:00:00 16,5 14,5 16,0 41,0 24 13 41 22 SSW 1017,9 58 0 0,0
04.07.2020 06:00:00 16,2 14,0 15,2 40,6 22 12 40 21 SSW 1017,8 45 0 0,0
04.07.2020 05:00:00 15,9 13,4 15,0 40,9 21 11 34 18 SSW 1018,3 49 0 0,0
04.07.2020 04:00:00 15,6 13,1 14,8 41,8 22 12 37 20 SSW 1018,5 46 0 0,0
04.07.2020 03:00:00 15,3 12,8 14,5 42,4 18 10 35 19 SSW 1019,5 50 0 0,0
04.07.2020 02:00:00 14,9 12,2 14,1 42,6 20 11 32 17 SSW 1019,8 43 0 0,0
04.07.2020 01:00:00 14,7 11,5 13,7 43,3 16 9 29 16 SSW 1020,3 57 0 0,0
04.07.2020 00:00:00 14,5 11,3 13,5 43,8 16 9 24 13 SW 1020,7 55 0 0,0
03.07.2020 23:00:00 14,8 11,0 13,7 44,1 13 7 29 15 SSW 1020,7 43 0 0,0
03.07.2020 22:00:00 16,3 11,0 15,5 44,2 18 10 36 20 SW 1020,4 60 37 0,0
03.07.2020 21:00:00 18,3 11,4 19,0 42,7 24 13 42 23 SW 1020,4 57 60 0,0
03.07.2020 20:00:00 19,0 11,1 19,8 43,1 26 14 44 24 SW 1020,4 60 53 0,0
03.07.2020 19:00:00 20,4 11,6 20,3 45,0 21 11 41 22 SW 1020,2 60 28 0,0
03.07.2020 18:00:00 20,3 12,8 20,5 44,1 26 14 40 22 SW 1020,7 60 18 0,0
03.07.2020 17:00:00 20,5 12,2 19,6 43,9 20 11 40 22 WSW 1020,8 57 10 0,0
03.07.2020 16:00:00 20,2 11,9 21,6 44,0 23 12 35 19 SW 1021,2 44 18 0,0
03.07.2020 15:00:00 20,0 12,7 20,9 43,4 13 7 29 16 WSW 1021,4 57 12 0,0
03.07.2020 14:00:00 20,0 11,5 21,5 41,6 17 9 31 17 WSW 1021,8 47 21 0,0
03.07.2020 13:00:00 19,2 11,7 20,8 40,6 16 9 29 16 SW 1022,1 33 31 0,0
03.07.2020 12:00:00 18,9 12,2 20,5 41,5 14 8 28 15 WSW 1022,0 57 45 0,0
03.07.2020 11:00:00 17,7 12,6 16,6 41,5 12 6 25 14 SW 1021,9 43 48 0,0
03.07.2020 10:00:00 15,5 12,6 14,5 45,2 16 8 26 14 WSW 1022,1 38 51 0,0
03.07.2020 09:00:00 13,6 12,2 13,1 45,8 11 6 20 11 WSW 1022,0 20 21 0,0
03.07.2020 08:00:00 12,5 11,4 11,4 43,9 11 6 20 11 WSW 1021,9 19 58 0,0
03.07.2020 07:00:00 10,7 10,4 9,3 42,7 10 5 15 8 SSW 1021,8 13 21 0,0
03.07.2020 06:00:00 10,5 10,0 9,5 42,7 9 5 18 10 SW 1021,4 14 0 0,0
03.07.2020 05:00:00 11,3 10,8 10,1 44,2 13 7 18 10 WSW 1021,1 18 0 0,0
03.07.2020 04:00:00 11,4 10,9 10,5 44,5 11 6 21 11 WSW 1021,1 18 0 0,0
03.07.2020 03:00:00 11,5 11,0 10,3 44,6 11 6 16 9 SW 1021,0 17 0 0,0
03.07.2020 02:00:00 12,2 11,3 11,1 44,6 9 5 14 8 SW 1021,0 18 0 0,0
03.07.2020 01:00:00 13,1 11,5 11,8 45,6 9 5 15 8 W 1020,9 37 0 0,0
03.07.2020 00:00:00 14,0 11,9 12,9 46,0 9 5 23 12 W 1020,5 40 0 0,0
02.07.2020 23:00:00 14,7 12,2 13,7 46,2 15 8 30 16 WNW 1020,2 39 0 0,0
02.07.2020 22:00:00 15,2 12,7 14,8 45,6 18 10 29 16 WNW 1019,6 39 4 0,0
02.07.2020 21:00:00 15,3 12,2 15,1 45,8 18 10 34 19 WNW 1019,1 37 8 0,0
02.07.2020 20:00:00 16,1 11,3 17,2 45,3 24 13 35 19 NW 1018,6 42 31 0,0
02.07.2020 19:00:00 16,6 12,7 17,8 47,2 21 12 35 19 NW 1018,2 20 8 0,0
02.07.2020 18:00:00 16,4 12,4 17,4 48,3 24 13 36 19 NW 1018,1 60 12 0,0
02.07.2020 17:00:00 16,8 13,1 16,8 48,6 21 11 33 18 NW 1017,8 20 2 0,0
02.07.2020 16:00:00 17,7 13,2 19,0 48,3 16 9 31 17 NW 1017,5 19 5 0,0
02.07.2020 15:00:00 16,7 12,8 18,0 49,0 17 9 27 15 NW 1017,4 20 6 0,0
02.07.2020 14:00:00 16,7 12,6 17,5 51,5 16 9 29 16 NW 1016,9 45 5 0,0
02.07.2020 13:00:00 17,3 12,2 14,4 47,5 14 7 22 12 WSW 1016,3 51 0 0,2
02.07.2020 12:00:00 17,6 12,1 18,3 43,5 17 9 31 17 WNW 1015,8 50 19 0,0
02.07.2020 11:00:00 16,9 12,4 17,3 45,3 15 8 30 16 W 1015,6 41 48 0,0
02.07.2020 10:00:00 15,2 12,5 14,3 44,7 16 9 27 15 W 1015,3 20 2 0,0
02.07.2020 09:00:00 14,3 12,3 13,9 44,6 15 8 27 15 WSW 1015,0 20 31 0,0
02.07.2020 08:00:00 13,7 12,4 11,0 45,4 13 7 23 12 WSW 1014,7 17 51 0,0
02.07.2020 07:00:00 11,5 11,2 10,0 47,1 11 6 19 10 SW 1014,3 14 0 0,2
02.07.2020 06:00:00 10,7 10,5 9,7 46,9 11 6 18 10 SSW 1014,1 12 0 0,0
02.07.2020 05:00:00 11,0 10,8 10,1 46,7 12 7 18 10 SW 1013,8 14 0 0,0
02.07.2020 04:00:00 11,4 10,9 10,2 48,0 9 5 18 10 SW 1013,8 13 0 0,0
02.07.2020 03:00:00 12,1 11,5 11,0 48,7 10 5 24 13 WSW 1013,7 19 0 0,0
02.07.2020 02:00:00 13,3 12,4 12,4 49,5 14 7 28 15 W 1013,5 25 0 0,0
02.07.2020 01:00:00 14,1 13,1 13,6 49,8 16 9 35 19 W 1013,1 19 0 0,0
02.07.2020 00:00:00 14,5 14,3 14,4 49,3 15 8 27 15 NW 1012,7 3,4 0 3,4
01.07.2020 23:00:00 15,2 14,9 15,1 50,0 3 2 8 5 NNW 1012,2 20 0 0,0
01.07.2020 22:00:00 15,2 14,9 15,3 49,6 4 2 14 8 NNW 1011,6 9 0 0,0
01.07.2020 21:00:00 15,6 14,6 16,0 50,7 8 5 14 7 NNW 1011,5 10 0 0,0
01.07.2020 20:00:00 15,9 14,1 16,2 51,6 5 3 15 8 NNE 1011,2 59 0 0,0
01.07.2020 19:00:00 16,4 13,5 17,0 51,9 12 6 29 16 N 1010,9 60 0 0,0
01.07.2020 18:00:00 19,8 14,4 19,8 51,7 23 13 45 25 WSW 1010,3 60 0 0,0
01.07.2020 17:00:00 19,8 14,8 19,5 51,9 11 6 24 13 W 1010,2 53 5 0,0
01.07.2020 16:00:00 19,9 14,5 19,4 52,5 16 9 29 16 WSW 1010,1 59 0 0,0
01.07.2020 15:00:00 19,6 14,8 19,7 49,2 4 2 23 12 W 1010,0 20 2 0,0
01.07.2020 14:00:00 17,5 14,4 19,1 48,5 13 7 29 16 NNW 1010,1 43 11 0,0
01.07.2020 13:00:00 19,9 13,1 20,3 49,5 19 10 36 19 WSW 1009,6 59 18 0,0
01.07.2020 12:00:00 19,1 13,9 19,0 47,5 16 9 26 14 SW 1009,5 59 7 0,0
01.07.2020 11:00:00 17,9 13,2 17,3 43,5 13 7 31 17 W 1009,5 59 20 0,0
01.07.2020 10:00:00 17,9 14,0 16,5 48,8 20 11 35 19 W 1009,5 56 22 0,0
01.07.2020 09:00:00 16,3 15,8 15,8 50,7 11 6 17 9 W 1009,4 60 0 0,0
01.07.2020 08:00:00 15,4 15,4 15,2 52,7 8 4 20 11 WNW 1009,1 60 6 0,6
01.07.2020 07:00:00 15,1 15,1 15,2 52,6 13 7 21 11 NW 1008,7 4,6 0 1,2
01.07.2020 06:00:00 16,2 15,9 15,9 52,4 9 5 35 19 NW 1008,1 4,7 0 0,0
01.07.2020 05:00:00 17,9 16,8 16,9 51,0 22 12 34 19 SW 1007,8 42 0 0,2
01.07.2020 04:00:00 17,5 16,9 16,8 48,3 19 11 36 19 SSW 1008,1 33 0 0,8
01.07.2020 03:00:00 17,4 16,8 16,8 53,1 18 10 36 19 SSW 1008,4 8 0 0,4
01.07.2020 02:00:00 17,8 17,0 17,0 54,7 20 11 36 19 SSW 1009,1 19 0 0,0
01.07.2020 01:00:00 17,8 17,0 17,1 55,1 18 10 35 19 S 1009,7 58 0 0,2
01.07.2020 00:00:00 17,9 16,9 17,1 54,8 21 11 33 18 SSW 1010,0 20 0 0,2
30.06.2020 23:00:00 18,7 16,5 18,4 53,3 18 10 37 20 SSW 1010,0 59 0 0,0
30.06.2020 22:00:00 19,2 16,6 19,0 59,0 20 11 36 20 SW 1009,9 60 0 0,0
30.06.2020 21:00:00 19,8 16,6 19,7 19,7 21 12 44 24 SW 1009,9 60 0 0,0
30.06.2020 20:00:00 20,5 16,9 21,0 19,6 29 15 45 24 SW 1009,7 43 18 0,0
30.06.2020 19:00:00 21,7 17,5 22,0 19,5 24 13 45 24 SW 1010,1 60 31 0,0
30.06.2020 18:00:00 20,7 17,1 21,1 35,5 26 14 46 25 SW 1010,6 54 10 0,0
30.06.2020 17:00:00 20,8 16,6 21,5 41,8 27 15 43 23 SW 1010,9 51 1 0,0
30.06.2020 16:00:00 21,4 16,6 22,7 45,9 23 13 41 22 SW 1011,0 43 2 0,0
30.06.2020 15:00:00 21,2 16,6 22,7 47,5 25 13 41 22 SW 1011,3 52 5 0,0
30.06.2020 14:00:00 21,2 16,2 22,9 49,1 24 13 42 23 SW 1011,2 60 4 0,0
30.06.2020 13:00:00 21,0 16,2 23,4 48,7 28 15 44 24 SW 1011,3 58 37 0,0
30.06.2020 12:00:00 20,6 15,8 21,6 54,6 26 14 41 22 SW 1011,4 19 52 0,0
30.06.2020 11:00:00 19,8 15,9 19,3 59,2 26 14 42 23 SSW 1011,4 60 13 0,0
30.06.2020 10:00:00 18,3 15,0 17,9 55,6 24 13 40 21 SW 1011,7 60 4 0,0
30.06.2020 09:00:00 17,0 15,5 15,5 45,3 16 9 33 18 SSW 1011,7 58 1 0,0
30.06.2020 08:00:00 15,5 15,2 15,0 46,0 17 9 35 19 SSW 1011,6 7 0 0,0
30.06.2020 07:00:00 14,9 14,4 14,7 46,3 17 9 32 18 S 1011,9 20 0 0,0
30.06.2020 06:00:00 14,8 13,8 14,7 46,5 16 9 35 19 S 1012,1 60 0 0,0
30.06.2020 05:00:00 14,9 13,6 14,6 47,5 20 11 37 20 SSW 1012,4 60 0 0,0
30.06.2020 04:00:00 14,7 13,2 14,4 52,0 17 9 29 16 SSW 1013,1 46 0 0,0
30.06.2020 03:00:00 14,6 12,8 14,4 53,3 16 8 32 17 SSW 1013,6 47 0 0,0
30.06.2020 02:00:00 14,5 12,5 14,0 54,0 11 6 24 13 SSW 1014,4 54 0 0,0
30.06.2020 01:00:00 14,8 11,8 14,6 55,0 12 6 27 15 SSW 1015,2 59 0 0,0
30.06.2020 00:00:00 15,2 11,4 14,7 57,5 21 11 32 17 SW 1015,5 60 0 0,0
29.06.2020 23:00:00 15,7 10,5 15,2 58,5 12 6 23 12 SW 1015,6 60 0 0,0
29.06.2020 22:00:00 16,0 11,2 15,6 59,0 14 8 35 19 SW 1015,5 60 0 0,0
29.06.2020 21:00:00 15,7 12,4 16,0 57,6 2 1 9 5 ESE 1015,9 18 0 0,0
29.06.2020 20:00:00 15,9 12,1 17,0 57,4 10 5 18 10 NNW 1015,9 20 0 0,0
29.06.2020 19:00:00 16,4 11,1 18,4 57,2 14 8 21 11 NNW 1016,1 60 8 0,0
29.06.2020 18:00:00 16,8 10,9 18,9 54,8 13 7 24 13 N 1016,5 48 16 0,0
29.06.2020 17:00:00 16,8 10,9 20,0 54,0 16 9 27 15 N 1016,8 33 23 0,0
29.06.2020 16:00:00 19,0 12,3 20,0 53,7 12 6 26 14 N 1016,8 20 20 0,0
29.06.2020 15:00:00 17,3 11,6 19,5 53,2 13 7 37 20 NNW 1017,3 20 5 0,0
29.06.2020 14:00:00 18,8 10,9 19,7 53,2 17 9 31 17 W 1017,6 60 17 0,0
29.06.2020 13:00:00 17,9 9,5 18,1 51,6 20 11 37 20 W 1017,8 31 11 0,0
29.06.2020 12:00:00 16,4 9,3 17,1 50,3 19 11 34 18 W 1017,9 57 0 0,0
29.06.2020 11:00:00 17,0 9,4 16,8 50,5 19 11 34 18 WSW 1017,6 58 49 0,0
29.06.2020 10:00:00 14,9 10,1 14,6 55,6 20 11 37 20 SW 1017,8 20 0 0,0
29.06.2020 09:00:00 14,2 10,6 13,4 49,3 18 10 30 16 SW 1017,6 20 11 0,0
29.06.2020 08:00:00 12,6 10,5 11,9 53,0 14 8 23 12 SW 1017,3 50 1 0,0
29.06.2020 07:00:00 11,4 10,3 10,2 52,6 11 6 18 10 SSW 1017,0 43 14 0,0
29.06.2020 06:00:00 11,5 10,1 10,0 50,8 11 6 20 11 SSW 1016,8 49 0 0,0
29.06.2020 05:00:00 11,6 9,8 10,9 53,2 13 7 19 10 SW 1016,7 52 0 0,0
29.06.2020 04:00:00 11,7 9,8 9,9 53,6 11 6 19 10 WSW 1016,6 55 0 0,0
29.06.2020 03:00:00 11,9 9,1 10,1 54,2 9 5 19 11 WSW 1016,9 59 0 0,0
29.06.2020 02:00:00 11,9 9,1 10,4 56,7 10 5 16 8 WSW 1017,0 60 0 0,0
29.06.2020 01:00:00 13,4 9,1 12,4 56,5 9 5 27 15 WSW 1016,7 60 0 0,0
29.06.2020 00:00:00 14,4 8,8 13,6 56,3 13 7 31 17 W 1016,8 60 0 0,0
28.06.2020 23:00:00 14,8 10,0 14,3 57,7 12 7 34 18 WNW 1017,1 55 0 0,0
28.06.2020 22:00:00 14,9 10,7 14,5 55,9 19 10 32 18 NW 1016,6 46 0 0,0
28.06.2020 21:00:00 15,2 10,8 15,5 57,3 19 10 31 17 NNW 1016,2 35 8 0,0
28.06.2020 20:00:00 16,4 10,7 17,9 54,1 20 11 30 16 NNW 1016,2 57 36 0,0
28.06.2020 19:00:00 16,9 10,3 17,3 58,0 16 9 27 14 NNW 1016,1 57 13 0,0
28.06.2020 18:00:00 16,4 11,1 18,0 54,0 17 9 27 15 NNW 1016,4 41 15 0,0
28.06.2020 17:00:00 16,4 12,2 18,9 54,1 16 9 29 16 NNW 1016,6 60 2 0,0
28.06.2020 16:00:00 17,9 13,0 19,2 59,0 16 9 29 15 N 1016,3 55 17 0,0
28.06.2020 15:00:00 19,4 11,7 21,7 - 12 6 37 20 NNW 1015,8 20 15 0,0
28.06.2020 14:00:00 20,2 10,3 20,8 - 22 12 40 22 SW 1015,8 56 43 0,0

tt = Température de l'air
td = dewpoint
tt 5cm = Température de l'air 5cm
tt -20cm = Température de l'air -20cm
ff = Vitesse du vent
fx = gusts
dd = Direction du vent
ppp = reduced air pressure
vv = visibility
sd = Ensoleillement
rr = Quantités de précipitations

stations d'obs. à proximité